User: anonymous   Login
Location: *
(51.8167°N, 12.5000°E)
Time: 00:40:31
(UTC+00:00)
Language:

Cosmos 407 Rocket - Orbit

View from above orbital plane
View from above orbital plane
View from above satellite
View from above satellite

Ground track
Ground track

The orbit data is extracted from the following two-line orbital elements,

1  5175U 71035B   19317.53389502  .00000038  00000-0  21092-4 0  9999
2  5175  74.0506  31.0572 0029673  19.6950 340.5342 14.37957115541337
Epoch (UTC): 13 November 2019 12:48:48
Eccentricity: 0.0029673
inclination: 74.0506°
perigee height: 744 km
apogee height: 786 km
right ascension of ascending node: 31.0572°
argument of perigee: 19.6950°
revolutions per day: 14.37957115
mean anomaly at epoch: 340.5342°
orbit number at epoch: 54133

The dashed part of the orbit path shows where the satellite is in the earth's shadow,  

DLR